Effective Sunday, March 17, 2024, the National Weather Service National Data Buoy Center will discontinue its Dial-A-Buoy Interactive Voice Response system. For more information, see Service Change Notice 24-06 (PDF).

Station WKXA1 - Safe Harbor Met Station, Weeks Bay Reserve, AL Image indicating link to RSS feed of recent meteorological observations for station WKXA1


Conditions at WKXA1 as of
(6:45 am CST)
1245 GMT on 02/26/2024:
     

Click on the graph icon in the table below to see a time series plot of the last five days of that observation.

5-day plot - Wind Speed Wind Speed (WSPD): 0.0 kts
5-day plot - Atmospheric Pressure Atmospheric Pressure (PRES):30.15 in
5-day plot - Air Temperature Air Temperature (ATMP): 46.0 °F
5-day plot - Dew Point Dew Point (DEWP): 46.0 °F
5-day plot -  Wind Speed, Wind Gust and Atmospheric Pressure Combined plot of Wind Speed, Gust, and Air Pressure
Previous observations
TIME
(CST)
5-day plot - Wind Direction
WDIR
 
5-day plot - Wind Speed
WSPD
kts
5-day plot - Wind Gust
GST
kts
5-day plot - Wave Height
WVHT
ft
5-day plot - Dominant Wave Period
DPD
sec
5-day plot - Average Wave Period
APD
sec
5-day plot - Mean Wave Direction
MWD
 
5-day plot - Atmospheric Pressure
PRES
in
5-day plot - Pressure Tendency
PTDY
in
5-day plot - Air Temperature
ATMP
°F
5-day plot - Water Temperature
WTMP
°F
5-day plot - Dew Point
DEWP
°F
5-day plot - Salinity
SAL
psu
5-day plot - Visibility
VIS
nmi
5-day plot - Tide (above MLLW)
TIDE
ft
2024-02-26 06:30 am- 0.0-----30.15- 45.9- 45.9---
2024-02-26 06:15 am- 0.0-----30.15- 45.9- 45.9---
2024-02-26 06:00 am- 0.0-----30.15+0.00 45.9- 45.9---
2024-02-26 05:45 am- 0.0-----30.15- 46.0- 46.0---
2024-02-26 05:30 am- 0.0-----30.15- 45.9- 45.9---
2024-02-26 05:15 am- 0.0-----30.15- 46.0- 46.0---
2024-02-26 05:00 am- 0.0-----30.15+0.00 46.2- 46.2---
2024-02-26 04:45 am- 0.0-----30.15- 46.2- 46.2---
2024-02-26 04:30 am- 0.0-----30.15- 46.6- 46.6---
2024-02-26 04:15 am- 0.0-----30.15- 46.6- 46.6---
2024-02-26 04:00 am- 0.0-----30.15+0.00 46.9- 46.9---
2024-02-26 03:45 am- 0.0-----30.15- 46.9- 46.9---
2024-02-26 03:30 am- 0.0-----30.15- 47.1- 47.1---
2024-02-26 03:15 am- 0.0-----30.15- 46.9- 46.9---
2024-02-26 03:00 am- 0.0-----30.15-0.03 47.1- 47.1---
2024-02-26 02:45 am- 0.0-----30.15- 47.3- 47.3---
2024-02-26 02:30 am- 0.0-----30.15- 46.9- 46.9---
2024-02-26 02:15 am- 0.0-----30.15- 46.8- 46.8---
2024-02-26 02:00 am- 0.0-----30.15-0.03 46.6- 46.6---
2024-02-26 01:45 am- 0.0-----30.15- 46.6- 46.6---
2024-02-26 01:30 am- 0.0-----30.15- 46.4- 46.4---
2024-02-26 01:15 am- 0.0-----30.15- 46.2- 46.2---
2024-02-26 01:00 am- 0.0-----30.15-0.03 46.4- 46.4---
2024-02-26 12:45 am- 0.0-----30.15- 46.6- 46.6---
2024-02-26 12:30 am- 0.0-----30.15- 46.9- 46.9---
2024-02-26 12:15 am- 0.0-----30.15- 46.9- 46.9---
2024-02-26 12:00 am- 0.0-----30.18+0.00 47.1- 47.1---
2024-02-25 11:45 pm- 0.0-----30.18- 47.3- 47.3---
2024-02-25 11:30 pm- 0.0-----30.18- 47.3- 47.3---
2024-02-25 11:15 pm- 0.0-----30.18- 47.5- 47.5---
2024-02-25 11:00 pm- 0.0-----30.18+0.00 47.7- 47.7---
2024-02-25 10:45 pm- 0.0-----30.18- 48.4- 48.4---
2024-02-25 10:30 pm- 0.0-----30.18- 48.4- 48.4---
2024-02-25 10:15 pm- 0.0-----30.18- 48.4- 48.4---
2024-02-25 10:00 pm- 0.0-----30.18+0.03 48.6- 48.6---
2024-02-25 09:45 pm- 0.0-----30.18- 48.9- 48.7---
2024-02-25 09:30 pm- 0.0-----30.18- 48.9- 48.7---
2024-02-25 09:15 pm- 0.0-----30.18- 48.9- 48.4---
2024-02-25 09:00 pm- 0.0-----30.18+0.03 49.5- 48.7---
2024-02-25 08:45 pm- 0.0-----30.18- 50.2- 49.6---
2024-02-25 08:30 pm- 0.0-----30.18- 50.5- 49.8---
2024-02-25 08:15 pm- 0.0-----30.18- 50.5- 49.1---
2024-02-25 08:00 pm- 0.0-----30.18+0.03 51.1- 49.5---
2024-02-25 07:45 pm- 0.0-----30.15- 51.6- 49.5---
2024-02-25 07:30 pm- 0.0-----30.18- 52.5- 50.4---
2024-02-25 07:15 pm- 0.0-----30.15- 53.4- 49.6---
2024-02-25 07:00 pm- 0.0-----30.15+0.00 54.0- 48.9---
2024-02-25 06:45 pm- 0.0-----30.15- 55.0- 48.7---
2024-02-25 06:30 pm- 0.0-----30.15- 56.7- 49.6---
2024-02-25 06:15 pm- 0.0-----30.15- 59.0- 50.5---
2024-02-25 06:00 pm- 0.0-----30.15-0.03 61.0- 50.5---
2024-02-25 05:45 pm S 1.0-----30.15- 62.4- 50.4---
2024-02-25 05:30 pm S 1.0-----30.15- 63.5- 50.5---
2024-02-25 05:15 pm S 1.9-----30.15- 64.9- 51.4---
2024-02-25 05:00 pm S 2.9-----30.15-0.03 65.1- 51.1---
2024-02-25 04:45 pmSSW 2.9-----30.15- 65.5- 50.2---
2024-02-25 04:30 pmSSW 2.9-----30.15- 66.2- 49.8---
2024-02-25 04:15 pmSSW 2.9-----30.15- 66.2- 48.9---
2024-02-25 04:00 pmSSW 2.9-----30.15-0.06 66.6- 47.7---
2024-02-25 03:45 pmSSW 2.9-----30.18- 66.7- 46.2---
2024-02-25 03:30 pm S 4.1-----30.18- 67.1- 46.6---
2024-02-25 03:15 pm S 2.9-----30.18- 67.6- 45.9---
2024-02-25 03:00 pmSSW 2.9-----30.18-0.03 67.8- 44.2---
2024-02-25 02:45 pmSSW 4.1-----30.18- 67.3- 41.9---
2024-02-25 02:30 pmSSW 4.1-----30.18- 67.3- 42.4---
2024-02-25 02:15 pmSSW 4.1-----30.18- 66.9- 41.5---
2024-02-25 02:00 pmSSW 4.1-----30.18-0.06 66.7- 42.6---
2024-02-25 01:45 pm S 4.1-----30.18- 67.1- 44.8---
2024-02-25 01:30 pmSSW 2.9-----30.18- 66.9- 44.6---
2024-02-25 01:15 pmSSW 4.1-----30.18- 67.1- 43.5---
2024-02-25 01:00 pmSSW 4.1-----30.21-0.03 67.5- 43.9---
2024-02-25 12:45 pmSSW 4.1-----30.21- 66.9- 43.5---
2024-02-25 12:30 pmSSW 4.1-----30.21- 66.9- 44.1---
2024-02-25 12:15 pmSSW 2.9-----30.21- 66.7- 44.4---
2024-02-25 12:00 pmSSW 4.1-----30.21-0.03 67.1- 44.8---
2024-02-25 11:45 am S 4.1-----30.21- 67.5- 44.6---
2024-02-25 11:30 am S 2.9-----30.24- 68.0- 43.2---
2024-02-25 11:15 amSSE 1.9-----30.24- 67.8- 38.8---
2024-02-25 11:00 amESE 1.9-----30.24+0.00 66.9- 36.5---
2024-02-25 10:45 am SE 2.9-----30.24- 66.4- 37.6---
2024-02-25 10:30 amESE 2.9-----30.24- 65.7- 39.0---
2024-02-25 10:15 am E 1.9-----30.24- 64.8- 38.8---
2024-02-25 10:00 am SE 1.9-----30.24+0.03 63.7- 38.7---
2024-02-25 09:45 amESE 1.9-----30.24- 62.6- 40.1---
2024-02-25 09:30 am SE 2.9-----30.24- 61.0- 41.4---
2024-02-25 09:15 amESE 1.9-----30.24- 58.8- 43.0---
2024-02-25 09:00 am SE 1.0-----30.24+0.06 56.3- 44.8---
2024-02-25 08:45 am E 1.0-----30.24- 54.0- 46.0---
2024-02-25 08:30 am- 0.0-----30.24- 51.8- 47.5---
2024-02-25 08:15 am- 0.0-----30.24- 49.3- 49.1---
2024-02-25 08:00 am- 0.0-----30.24+0.06 47.1- 47.1---